Date String (YYYY-MM-DD hh:mm:ss) UTC,Instrument flags,absolute air pressure of the measurement (hPa),sample flow rate (lpm),inlet stack bypass flow (lpm),air temperature of the measurement (°C),ambient temperature measured by the external sensor (°C),aerosol sample conditioner tube jacket temperature (°C),OPC LED temperature (°C),internal box temperature (°C),relative humidity of the measurement (%),span deviation,mass concentration of particles derived from Lorenz-Mie calculation of OPC scattering (μg/m³),mass concentration of particles derived from Lorenz-Mie calculation of OPC scattering (μg/m³),mass concentration of particles derived from Lorenz-Mie calculation of OPC scattering (μg/m³)
DateTimeUTC,F1_M11,P_M11,Q1_M11,Q2_M11,T1_M11,T2_M11,T3_M11,T4_M11,T5_M11,U1_M11,ZSPAN_M11,X0_M11,X2_M11,X1_M11
2024-04-19 15:00:00,SystemResetWarning,0832.6,4.99,000.00,019.6,019.0,000.0,028.1,021.4,026.1,0000.0,0002.68,0002.58,0002.41
2024-04-19 15:01:00,SystemResetWarning,0832.6,4.99,000.00,019.6,019.0,000.0,028.1,021.4,026.2,0000.0,0002.63,0002.50,0002.35
2024-04-19 15:02:00,SystemResetWarning,0832.6,5.00,000.00,019.6,019.0,000.0,028.1,021.3,026.3,0000.0,0002.54,0002.42,0002.29
2024-04-19 15:03:00,SystemResetWarning,0832.6,5.01,000.00,019.6,019.0,000.0,028.1,021.4,026.3,0000.0,0002.44,0002.33,0002.20
2024-04-19 15:04:00,SystemResetWarning,0832.6,5.00,000.00,019.6,019.0,000.0,028.1,021.4,026.3,0000.0,0002.41,0002.28,0002.11
2024-04-19 15:05:00,SystemResetWarning,0832.7,5.00,000.00,019.6,019.0,000.0,028.1,021.4,026.3,0000.0,0002.46,0002.27,0002.04
2024-04-19 15:06:00,SystemResetWarning,0832.6,5.00,000.00,019.6,019.0,000.0,028.1,021.3,026.4,0000.0,0002.60,0002.25,0001.98
2024-04-19 15:07:00,SystemResetWarning,0832.7,5.00,000.00,019.6,019.0,000.0,028.1,021.3,026.3,0000.0,0002.55,0002.17,0001.90
2024-04-19 15:08:00,SystemResetWarning,0832.7,4.99,000.00,019.6,019.0,000.0,028.1,021.3,026.5,0000.0,0002.56,0002.14,0001.84
2024-04-19 15:09:00,SystemResetWarning,0832.7,5.01,000.00,019.6,019.0,000.0,028.1,021.3,026.5,0000.0,0002.53,0002.07,0001.76
2024-04-19 15:10:00,SystemResetWarning,0832.7,5.01,000.00,019.6,019.0,000.0,028.1,021.3,026.6,0000.0,0002.56,0002.01,0001.67
2024-04-19 15:11:00,SystemResetWarning,0832.7,5.01,000.00,019.6,019.0,000.0,028.1,021.3,026.6,0000.0,0002.49,0001.95,0001.59
2024-04-19 15:12:00,SystemResetWarning,0832.7,5.01,000.00,019.6,019.0,000.0,028.1,021.3,026.7,0000.0,0002.36,0001.87,0001.53
2024-04-19 15:13:00,SystemResetWarning,0832.6,4.99,000.00,019.6,019.0,000.0,028.1,021.3,026.7,0000.0,0002.30,0001.81,0001.47
2024-04-19 15:14:00,SystemResetWarning,0832.6,4.99,000.00,019.6,019.0,000.0,028.1,021.3,026.6,0000.0,0002.23,0001.75,0001.42
2024-04-19 15:15:00,SystemResetWarning,0832.6,5.00,000.00,019.6,019.0,000.0,028.1,021.3,026.6,0000.0,0002.12,0001.66,0001.38
2024-04-19 15:16:00,SystemResetWarning,0832.6,5.01,000.00,019.6,019.0,000.0,028.1,021.3,026.7,0000.0,0002.03,0001.60,0001.35
2024-04-19 15:17:00,SystemResetWarning,0832.5,5.01,000.00,019.6,019.0,000.0,028.1,021.3,026.8,0000.0,0001.86,0001.54,0001.32
2024-04-19 15:18:00,SystemResetWarning,0832.6,5.00,000.00,019.6,019.0,000.0,028.1,021.3,026.7,0000.0,0001.71,0001.51,0001.30
2024-04-19 15:19:00,SystemResetWarning,0832.7,4.99,000.00,019.6,019.0,000.0,028.1,021.3,026.7,0000.0,0001.65,0001.47,0001.28
2024-04-19 15:20:00,SystemResetWarning,0832.7,4.99,000.00,019.6,019.0,000.0,028.1,021.3,026.5,0000.0,0001.63,0001.45,0001.26
2024-04-19 15:21:00,SystemResetWarning,0832.8,4.99,000.00,019.6,019.0,000.0,028.1,021.3,026.5,0000.0,0001.55,0001.42,0001.26
2024-04-19 15:22:00,SystemResetWarning,0832.8,5.00,000.00,019.6,019.0,000.0,028.1,021.3,026.4,0000.0,0001.46,0001.39,0001.26
2024-04-19 15:23:00,SystemResetWarning,0832.8,5.01,000.00,019.6,019.0,000.0,028.1,021.3,026.3,0000.0,0001.47,0001.39,0001.26
2024-04-19 15:24:00,SystemResetWarning,0832.7,5.01,000.00,019.6,019.0,000.0,028.1,021.3,026.3,0000.0,0001.46,0001.40,0001.28
2024-04-19 15:25:00,SystemResetWarning,0832.7,4.99,000.00,019.6,019.0,000.0,028.1,021.3,026.5,0000.0,0001.52,0001.43,0001.30
2024-04-19 15:26:00,SystemResetWarning,0832.7,4.99,000.00,019.6,019.0,000.0,028.0,021.3,026.5,0000.0,0001.57,0001.46,0001.31
2024-04-19 15:27:00,SystemResetWarning,0832.7,5.01,000.00,019.6,019.0,000.0,028.0,021.3,026.3,0000.0,0001.55,0001.45,0001.30
2024-04-19 15:28:00,SystemResetWarning,0832.7,5.00,000.00,019.6,019.0,000.0,028.1,021.3,026.3,0000.0,0001.55,0001.44,0001.29
2024-04-19 15:29:00,SystemResetWarning,0832.7,5.00,000.00,019.6,019.0,000.0,028.0,021.3,026.3,0000.0,0001.61,0001.42,0001.29
2024-04-19 15:30:00,SystemResetWarning,0832.7,5.00,000.00,019.6,019.0,000.0,028.0,021.3,026.2,0000.0,0001.61,0001.42,0001.29
2024-04-19 15:31:00,SystemResetWarning,0832.7,5.00,000.00,019.6,019.0,000.0,028.0,021.3,026.4,0000.0,0001.65,0001.44,0001.30
2024-04-19 15:32:00,SystemResetWarning,0832.7,5.00,000.00,019.6,019.0,000.0,028.0,021.3,026.4,0000.0,0001.63,0001.43,0001.31
2024-04-19 15:33:00,SystemResetWarning,0832.7,5.00,000.00,019.6,019.0,000.0,028.0,021.3,026.3,0000.0,0001.64,0001.45,0001.33
2024-04-19 15:34:00,SystemResetWarning,0832.7,4.99,000.00,019.6,019.0,000.0,028.0,021.3,026.3,0000.0,0001.72,0001.50,0001.36
2024-04-19 15:35:00,SystemResetWarning,0832.7,4.99,000.00,019.6,019.0,000.0,028.1,021.3,026.4,0000.0,0001.75,0001.52,0001.38
2024-04-19 15:36:00,SystemResetWarning,0832.7,5.01,000.00,019.6,019.0,000.0,028.1,021.3,026.9,0000.0,0001.73,0001.52,0001.39
2024-04-19 15:37:00,SystemResetWarning,0832.7,5.00,000.00,019.6,019.0,000.0,028.0,021.3,026.8,0000.0,0001.72,0001.53,0001.42
2024-04-19 15:38:00,SystemResetWarning,0832.7,5.00,000.00,019.6,019.0,000.0,028.1,021.3,026.3,0000.0,0001.73,0001.54,0001.44
2024-04-19 15:39:00,SystemResetWarning,0832.8,5.00,000.00,019.6,019.0,000.0,028.1,021.3,026.2,0000.0,0001.75,0001.57,0001.47
2024-04-19 15:40:00,SystemResetWarning,0832.7,5.01,000.00,019.6,019.0,000.0,028.1,021.3,026.0,0000.0,0001.76,0001.63,0001.52
2024-04-19 15:41:00,SystemResetWarning,0832.7,5.00,000.00,019.6,019.0,000.0,028.1,021.3,026.0,0000.0,0001.85,0001.71,0001.57
2024-04-19 15:42:00,SystemResetWarning,0832.7,5.01,000.00,019.6,019.0,000.0,028.0,021.3,026.0,0000.0,0001.88,0001.74,0001.61
2024-04-19 15:43:00,SystemResetWarning,0832.8,4.99,000.00,019.6,019.0,000.0,028.1,021.4,026.1,0000.0,0001.91,0001.77,0001.64
2024-04-19 15:44:00,SystemResetWarning,0832.7,4.99,000.00,019.6,019.0,000.0,028.1,021.4,026.0,0000.0,0001.93,0001.78,0001.66
2024-04-19 15:45:00,SystemResetWarning,0832.7,5.01,000.00,019.6,019.0,000.0,028.1,021.3,025.7,0000.0,0001.92,0001.79,0001.69
2024-04-19 15:46:00,SystemResetWarning,0832.7,5.01,000.00,019.6,019.0,000.0,028.1,021.3,025.5,0000.0,0001.96,0001.84,0001.73
2024-04-19 15:47:00,SystemResetWarning,0832.7,5.00,000.00,019.6,019.0,000.0,028.1,021.3,025.4,0000.0,0002.03,0001.91,0001.78
2024-04-19 15:48:00,SystemResetWarning,0832.8,5.00,000.00,019.6,019.0,000.0,028.1,021.4,025.4,0000.0,0002.11,0001.96,0001.82
2024-04-19 15:49:00,SystemResetWarning,0832.8,5.00,000.00,019.6,019.0,000.0,028.1,021.3,025.3,0000.0,0002.17,0002.00,0001.85
2024-04-19 15:50:00,SystemResetWarning,0833.1,5.00,000.00,019.6,019.0,000.0,028.1,021.3,025.3,0000.0,0002.43,0002.04,0001.87
2024-04-19 15:51:00,SystemResetWarning,0832.9,5.01,000.00,019.6,019.0,000.0,028.1,021.4,025.3,0000.0,0002.48,0002.06,0001.89
2024-04-19 15:52:00,SystemResetWarning,0832.8,5.01,000.00,019.6,019.0,000.0,028.1,021.4,025.4,0000.0,0002.52,0002.06,0001.90
2024-04-19 15:53:00,SystemResetWarning,0832.7,4.99,000.00,019.6,019.0,000.0,028.1,021.4,025.4,0000.0,0002.51,0002.06,0001.91
2024-04-19 15:54:00,SystemResetWarning,0832.7,4.99,000.00,019.6,019.0,000.0,028.1,021.3,025.5,0000.0,0002.48,0002.06,0001.93
2024-04-19 15:55:00,SystemResetWarning,0832.7,5.00,000.00,019.6,019.0,000.0,028.1,021.4,025.5,0000.0,0002.50,0002.10,0001.96
2024-04-19 15:56:00,SystemResetWarning,0832.8,5.01,000.00,019.6,019.0,000.0,028.1,021.4,025.6,0000.0,0002.51,0002.11,0001.97
2024-04-19 15:57:00,SystemResetWarning,0832.7,5.00,000.00,019.6,019.0,000.0,028.1,021.4,025.6,0000.0,0002.53,0002.11,0001.97
2024-04-19 15:58:00,SystemResetWarning,0832.8,4.99,000.00,019.6,019.0,000.0,028.1,021.4,025.7,0000.0,0002.55,0002.10,0001.95
2024-04-19 15:59:00,SystemResetWarning,0832.8,4.99,000.00,019.6,019.0,000.0,028.1,021.4,025.7,0000.0,0002.58,0002.11,0001.96
